TimeEDT,TemperatureF,Dew PointF,Humidity,Sea Level PressureIn,VisibilityMPH,Wind Direction,Wind SpeedMPH,Gust SpeedMPH,PrecipitationIn,Events,Conditions,WindDirDegrees,DateUTC
12:54 AM,62.1,62.1,100,30.00,-9999.0,Variable,5.8,-,N/A,,Unknown,0,2013-08-29 04:54:00
2:54 AM,62.1,62.1,100,29.99,-9999.0,NE,6.9,-,N/A,,Unknown,40,2013-08-29 06:54:00
3:54 AM,62.1,62.1,100,29.99,-9999.0,ENE,6.9,-,N/A,,Unknown,70,2013-08-29 07:54:00
4:54 AM,62.1,62.1,100,30.01,-9999.0,ENE,8.1,-,N/A,,Unknown,60,2013-08-29 08:54:00
5:54 AM,62.1,62.1,100,30.02,-9999.0,NE,10.4,-,N/A,,Unknown,40,2013-08-29 09:54:00
6:54 AM,62.1,62.1,100,30.04,-9999.0,NE,10.4,19.6,N/A,,Unknown,50,2013-08-29 10:54:00
7:54 AM,63.0,63.0,100,30.05,-9999.0,NNE,9.2,17.3,N/A,,Unknown,30,2013-08-29 11:54:00
8:54 AM,63.0,63.0,100,30.06,-9999.0,NNE,11.5,19.6,0.01,,Unknown,30,2013-08-29 12:54:00
9:54 AM,63.0,63.0,100,30.07,-9999.0,NE,10.4,20.7,N/A,,Unknown,40,2013-08-29 13:54:00
10:54 AM,62.1,61.0,96,30.09,-9999.0,NE,9.2,18.4,N/A,,Unknown,40,2013-08-29 14:54:00
11:54 AM,61.0,61.0,100,30.09,-9999.0,NNE,15.0,21.9,N/A,,Unknown,30,2013-08-29 15:54:00
12:54 PM,61.0,61.0,100,30.09,-9999.0,NE,12.7,23.0,0.01,,Unknown,40,2013-08-29 16:54:00
1:54 PM,61.0,61.0,100,30.08,-9999.0,NE,9.2,21.9,0.01,,Unknown,40,2013-08-29 17:54:00
2:54 PM,61.0,60.1,97,30.08,-9999.0,Variable,6.9,-,0.02,,Unknown,0,2013-08-29 18:54:00
3:54 PM,60.1,59.0,96,30.08,-9999.0,NE,10.4,19.6,N/A,,Unknown,40,2013-08-29 19:54:00
4:54 PM,59.0,59.0,100,30.09,-9999.0,NE,11.5,-,N/A,,Unknown,50,2013-08-29 20:54:00
5:54 PM,59.0,57.9,96,30.10,-9999.0,NE,10.4,18.4,N/A,,Unknown,50,2013-08-29 21:54:00
6:54 PM,57.9,57.0,97,30.09,-9999.0,ENE,8.1,16.1,N/A,,Unknown,60,2013-08-29 22:54:00
7:54 PM,57.9,57.0,97,30.09,-9999.0,ENE,5.8,-,N/A,,Unknown,70,2013-08-29 23:54:00
8:54 PM,59.0,57.0,93,30.09,-9999.0,ENE,5.8,-,N/A,,Unknown,70,2013-08-30 00:54:00
9:54 PM,59.0,57.9,96,30.09,-9999.0,North,6.9,-,N/A,,Unknown,360,2013-08-30 01:54:00
10:54 PM,59.0,57.9,96,30.08,-9999.0,NNW,4.6,-,N/A,,Unknown,340,2013-08-30 02:54:00
11:54 PM,59.0,57.9,96,30.06,-9999.0,NNW,5.8,-,N/A,,Unknown,330,2013-08-30 03:54:00